Other Public Products
Issued by NWS Grand Forks, ND

Home | Current Version | Previous Version | Graphics & Text | Print | Product List | Glossary On
Versions: 1 2 3 4 5 6 7 8 9 10 11 12 13 14 15 16 17 18 19 20 21 22 23 24 25 26 27 28 29 30 31 32 33 34 35 36 37 38 39 40 41 42 43 44 45 46 47 48 49 50
218
FPUS83 KFGF 181231
OPUFGF
PRAIRIE TO PINES WEATHER ROUNDUP
NATIONAL WEATHER SERVICE EASTERN NORTH DAKOTA/GRAND FORKS ND
600 AM CST WED JAN 18 2017

 **SATELLITE DATA USED TO AUGMENT SKY COVER AT AUTOMATED STATIONS**
 *****  WEATHER ACROSS EASTERN NORTH DAKOTA  *****

CITY           SKY/WX    TMP DP  RH WIND       PRES   REMARKS
GRAND FORKS    FAIR      24  18  77 S13       29.69S WCI  12
6HR MIN TEMP:  22; 6HR MAX TEMP:  28;

GRAND FORKS AF CLEAR     22  17  81 S16       29.68S WCI   9
GRAND CITY NWS NOT AVBL
BUXTON           N/A     20  17  88 S6          N/A  WCI  13
DEVILS LAKE    FAIR      23  19  85 SW7       29.68R WCI  15
6HR MIN TEMP:  21; 6HR MAX TEMP:  29;

FARGO          FAIR      20  16  84 S8        29.77R WCI  10
6HR MIN TEMP:  19; 6HR MAX TEMP:  24;

WAHPETON ARPT  FAIR      19  18  93 SE5       29.80R WCI  13
$$

 *****  WEATHER ACROSS CENTRAL AND WESTERN NORTH DAKOTA  *****

CITY           SKY/WX    TMP DP  RH WIND       PRES   REMARKS
JAMESTOWN      FAIR      27  20  75 CALM      29.73R
6HR MIN TEMP:  23; 6HR MAX TEMP:  28;

BISMARCK       FAIR      18  13  80 NE3       29.75S
6HR MIN TEMP:  16; 6HR MAX TEMP:  28;

MINOT          FAIR      37  28  70 SW16      29.65R
6HR MIN TEMP:  33; 6HR MAX TEMP:  41;

MINOT AFB      FAIR      35  27  72 W15       29.63S
6HR MIN TEMP:  32; 6HR MAX TEMP:  37;

GARRISON         N/A     27  21  78 SW6       29.69S WCI  20
6HR MIN TEMP:  23; 6HR MAX TEMP:  31;

WILLISTON      FAIR      25  21  85 SW6       29.68S WCI  18
6HR MIN TEMP:  23; 6HR MAX TEMP:  32;

DICKINSON      FAIR      30  21  69 W10       29.71S WCI  21
6HR MIN TEMP:  30; 6HR MAX TEMP:  36;

HETTINGER      FAIR      28  19  69 NW8       29.76S WCI  20
6HR MIN TEMP:  25; 6HR MAX TEMP:  33;

$$

 *****  OTHER OBSERVATIONS NORTHEAST NORTH DAKOTA  *****

CITY           SKY/WX    TMP DP  RH WIND       PRES   REMARKS
WALHALLA       NOT AVBL
LANGDON        NOT AVBL
CAVALIER         N/A     27  23  86 CALM      29.65R
GRAFTON        FAIR      23  19  86 S10       29.69R WCI  12
CANDO          NOT AVBL
FORT TOTTEN      N/A     31  24  74 SW3       29.95S
ROLLA            N/A    N/A N/A N/A MISG        N/A
RUGBY            N/A     23  21  93 S8        29.67R WCI  14
 ***** THE ABOVE OBSERVATIONS ARE NON NWS ARE NOT QUALITY
        CONTROLLED AND MAY MIS-REPORT RAIN FOR SNOW...
$$

 *****  OTHER OBSERVATIONS SOUTHEAST NORTH DAKOTA *****

CITY           SKY/WX    TMP DP  RH WIND       PRES   REMARKS
COOPERSTOWN    FAIR      21  18  86 SW8       29.71S WCI  12
VALLEY CITY    FAIR      23  19  86 S7        29.75S WCI  15
OAKES          NOT AVBL
GWINNER        FAIR      25  19  80 SW18      29.77R WCI  11
SHEYENNE NWR     N/A     23  16  73 W8        29.95S WCI  14
BUFFALO          N/A     23  15  71 S8          N/A  WCI  14
WYNDMERE         N/A     14  10  85 E3          N/A
 ***** THE ABOVE OBSERVATIONS ARE NON NWS ARE NOT QUALITY
       CONTROLLED AND MAY MIS-REPORT RAIN FOR SNOW...
$$

  *****  WEATHER ACROSS NORTHERN MINNESOTA  *****

CITY           SKY/WX    TMP DP  RH WIND       PRES   REMARKS
FLAG ISLAND    FAIR      16  12  86 SE6       29.65R WCI   7
WARROAD        FAIR      21  18  86 SW6       29.66R WCI  14
ROSEAU         FAIR      19  14  79 S7        29.65S WCI  10
HALLOCK        FAIR      18  16  93 S10       29.65R WCI   6
THF RVR FALLS  FAIR      21  17  84 SW10      29.70S WCI  10
6HR MIN TEMP:  21; 6HR MAX TEMP:  22;

HALSTAD          N/A     20  14  79 S13         N/A  WCI   7
FOSSTON        FAIR      21  18  86 S16       29.73R WCI   7
BAUDETTE       FAIR      22  16  78 SW6       29.66R WCI  14
6HR MIN TEMP:  22; 6HR MAX TEMP:  28;

WASKISH        FAIR      25  19  80 CALM      29.69R
CROOKSTON      FAIR      19  16  86 S12       29.72S WCI   7
$$
  *****  WEATHER ACROSS CENTRAL AND WEST MINNESOTA  *****

CITY           SKY/WX    TMP DP  RH WIND       PRES   REMARKS
BEMIDJI        FAIR      26  19  76 SW7       29.72R WCI  18
PARK RAPIDS    FAIR      16  11  80 S7        29.75R WCI   6
6HR MIN TEMP:  16; 6HR MAX TEMP:  21;

WADENA         FAIR      21  19  93 CALM      29.78R
DETROIT LAKES  FAIR      27  23  86 SW5       29.78R WCI  21
MOORHEAD       FAIR      18  14  86 S9        29.78S WCI   6
FERGUS FALLS   FAIR      21  18  86 S6        29.85R WCI  14
ELBOW LAKE     FAIR      21  19  93 SE10      29.79S FOG     WCI  10
6HR MIN TEMP:  18; 6HR MAX TEMP:  22;

MORRIS MN      FAIR      21  19  93 S10       29.79F WCI  10
STAPLES        FAIR      21  19  93 CALM      29.80R
WHEATON        FAIR      27  23  86 CALM      29.82R
$$
  *****  WEATHER ELSEWHERE ACROSS MINNESOTA  *****

CITY           SKY/WX    TMP DP  RH WIND       PRES   REMARKS
DULUTH         CLOUDY    26  25  96 SW17G24   29.76F FOG     WCI  13
6HR MIN TEMP:  23; 6HR MAX TEMP:  26;

INTRNTL FALLS  FAIR      24  16  71 SW7       29.68R WCI  16
6HR MIN TEMP:  23; 6HR MAX TEMP:  29;

ELY            FAIR      25  19  80 SW8       29.71S WCI  16
CLOQUET        CLOUDY    27  25  93 SW10      29.78S WCI  17
BRAINERD       FAIR      22  20  92 S8        29.80F WCI  12
6HR MIN TEMP:  18; 6HR MAX TEMP:  23;

HIBBING        FAIR      21  19  92 S6        29.75R WCI  13
6HR MIN TEMP:  18; 6HR MAX TEMP:  21;

ALEXANDRIA     FAIR      26  22  84 S14       29.79F WCI  14
6HR MIN TEMP:  20; 6HR MAX TEMP:  26;

SAINT CLOUD    FAIR      23  21  92 S9        29.86F WCI  13
6HR MIN TEMP:  19; 6HR MAX TEMP:  23;

MINNEAPOLIS    FAIR      28  24  85 S8        29.94F FOG     WCI  20
6HR MIN TEMP:  25; 6HR MAX TEMP:  30;

$$

  *****  WEATHER ACROSS SOUTH DAKOTA  *****

CITY           SKY/WX    TMP DP  RH WIND       PRES   REMARKS
SIOUX FALLS    FAIR      23  22  96 N3        29.90F
6HR MIN TEMP:  23; 6HR MAX TEMP:  31;

BROOKINGS      FAIR      22  20  92 SE7       29.87S WCI  13
WATERTOWN      FAIR      19  16  88 E3        29.84R
6HR MIN TEMP:  16; 6HR MAX TEMP:  21;

HURON          FAIR      18  16  92 S6        29.86F WCI  10
6HR MIN TEMP:  18; 6HR MAX TEMP:  24;

SISSETON         N/A     35  22  58 W10       29.77R
ABERDEEN       FAIR      17  11  77 SW9       29.83R WCI   6
6HR MIN TEMP:  14; 6HR MAX TEMP:  17;

MITCHELL       FAIR      23  20  88 S6        29.89F WCI  16
PIERRE         FAIR      23  15  71 SW6       29.82F WCI  16
6HR MIN TEMP:  13; 6HR MAX TEMP:  23;

MOBRIDGE       FAIR      17  10  74 E9        29.78R WCI   6
RAPID CITY     FAIR      25  18  74 CALM      29.81F
6HR MIN TEMP:  22; 6HR MAX TEMP:  34;

$$

  *****  SOME WEATHER IN NEARBY STATES *****

CITY           SKY/WX    TMP DP  RH WIND       PRES   REMARKS
GLASGOW MT     FAIR      25  21  85 SE10      29.61F WCI  15
6HR MIN TEMP:  24; 6HR MAX TEMP:  29;

GREAT FALLS MT FAIR      41  25  53 S23       29.62F
6HR MIN TEMP:  38; 6HR MAX TEMP:  43;

CHEYENNE WY    FAIR      29  11  47 W12       29.94S WCI  19
6HR MIN TEMP:  23; 6HR MAX TEMP:  30;

SCOTTSBLUFF NE FAIR      26  15  63 NW8       29.92F WCI  18
6HR MIN TEMP:  18; 6HR MAX TEMP:  28;

OMAHA NE       FAIR      27  22  81 S12       30.05F WCI  17
6HR MIN TEMP:  24; 6HR MAX TEMP:  28;

DES MOINES IA  FOG       31  30  96 SW10      30.09F VSB 1/2 WCI  22
6HR MIN TEMP:  28; 6HR MAX TEMP:  33;

DAVENPORT IA   CLOUDY    32  30  92 W10       30.13R WCI  24
6HR MIN TEMP:  32; 6HR MAX TEMP:  34;

CHICAGO IL     DRIZZLE   35  33  92 W10       30.09R FOG
6HR MIN TEMP:  34; 6HR MAX TEMP:  35; 6HR PCP: TRACE;

EAU CLAIRE WI  FAIR      28  26  92 S9        29.99R FOG     WCI  19
6HR MIN TEMP:  28; 6HR MAX TEMP:  31;

LA CROSSE WI   CLOUDY    33  29  85 S10       30.05S WCI  25
6HR MIN TEMP:  33; 6HR MAX TEMP:  35;

$$

  *****  SOME NATIONAL WEATHER *****

CITY           SKY/WX    TMP DP  RH WIND       PRES   REMARKS
LA GUARDIA NY  CLOUDY    42  39  89 NE13      29.91R               C1F1C2F2C3F3C4F4C5F5C6F6C7F7C8F8C9F9CaFaCbFbCcFcCdFdCe!



USA.gov is the U.S. government's official web portal to all federal, state and local government web resources and services.